Theta_e
322 321 320 319 318 318 318 318 317 317 317 317 318 318 319 319 319 320 320 321 321 321 321 321 323 325 323 317 315 324 338 334 325 323 319 318 316 314 311 312 312 311 312 312 313 313 313
321 321 320 319 318 318 318 318 318 317 317 317 317 318 318 319 319 319 319 319 319 319 320 321 324 324 320 311 322 323 322 322 321 321 319 319 316 318 313 312 312 313 311 311 312 313 313
321 321 321 320 319 318 318 318 317 318 317 317 317 317 318 319 319 319 319 318 318 319 321 324 327 324 319 314 322 324 324 322 322 320 318 319 320 316 315 311 314 312 309 311 311 312 311
321 321 320 319 318 318 318 318 317 317 318 318 317 317 317 318 319 319 319 319 318 320 323 326 328 324 315 322 325 323 324 322 323 323 321 321 321 318 316 317 312 310 311 307 312 311 311
320 320 320 319 318 318 318 318 317 317 317 317 317 317 317 318 319 319 318 318 320 323 326 327 323 322 313 324 319 322 323 319 321 322 322 321 321 316 314 310 308 309 304 306 308 312 311
320 320 320 319 318 317 317 317 317 317 317 317 317 317 317 317 318 318 317 317 321 321 321 323 318 316 317 315 319 320 323 322 319 319 318 318 317 313 312 309 302 305 305 306 305 310 310
320 319 319 319 318 317 317 317 317 317 317 316 317 317 317 317 317 317 317 323 317 316 317 314 316 315 315 319 321 319 321 319 319 317 312 314 310 308 310 311 310 309 306 305 308 310 308
319 319 319 318 318 317 317 316 316 316 316 316 316 316 317 317 317 317 321 321 320 321 314 315 317 317 318 319 313 317 323 316 314 310 311 310 307 311 310 310 308 307 305 305 308 309 308
318 318 318 317 317 316 316 316 316 316 315 314 315 315 316 316 316 319 324 321 326 324 316 312 316 316 316 318 313 314 319 316 312 308 309 308 309 310 308 307 306 307 305 306 305 308 310
318 318 318 317 316 316 316 316 316 316 315 314 314 314 315 314 318 325 322 326 327 326 310 308 312 315 316 317 312 319 320 317 313 308 309 308 310 308 307 305 306 303 308 306 304 303 299
318 318 317 316 316 316 315 315 315 315 314 313 313 314 314 311 328 324 324 327 327 326 301 311 312 321 317 313 315 314 320 317 310 309 310 307 307 307 306 306 307 304 306 304 303 302 301
318 318 317 317 316 316 315 314 314 314 313 312 313 314 314 320 328 325 326 327 324 309 299 308 312 311 311 312 312 315 315 317 316 311 311 309 312 309 308 308 306 307 304 305 305 302 296
317 317 317 316 316 315 314 314 314 314 312 312 312 313 315 324 323 327 326 321 307 301 312 306 307 310 310 308 310 311 311 311 309 305 306 308 308 310 309 306 308 305 303 296 295 295 295
317 316 316 316 316 315 314 314 313 313 312 311 310 309 316 326 330 328 325 313 303 307 307 311 309 309 306 309 309 309 309 308 312 309 306 303 300 307 308 304 301 302 300 296 289 291 294
316 316 316 316 315 315 314 313 313 312 311 309 308 326 325 332 333 328 320 306 308 308 310 308 309 306 307 309 308 309 309 309 310 310 304 304 302 307 307 306 304 302 301 303 297 300 295
316 316 316 316 315 315 315 314 314 313 310 309 329 326 327 330 332 325 314 307 310 312 311 311 305 307 305 308 306 308 308 310 307 310 312 308 301 306 306 305 306 303 305 298 301 290 288
315 315 315 315 315 315 315 314 314 312 310 308 330 321 327 331 328 320 308 310 310 313 313 311 309 307 307 306 307 307 306 309 309 308 311 309 306 303 303 302 301 302 301 301 300 299 291
315 315 315 315 315 314 314 314 313 311 308 315 325 314 327 328 315 318 313 311 302 311 314 312 313 311 308 308 306 305 304 308 310 310 305 309 307 300 301 305 305 303 301 300 297 295 298
315 315 315 315 315 314 314 313 313 311 308 315 316 316 327 325 310 311 314 310 311 310 311 310 309 310 311 307 303 306 306 310 310 309 307 310 303 299 299 303 304 301 303 304 303 302 297
315 314 315 315 315 314 314 313 313 311 309 314 316 310 317 318 318 314 311 310 309 311 310 311 310 311 308 306 308 305 305 307 310 310 307 308 305 302 296 299 301 299 301 302 302 300 298
315 315 314 314 315 315 314 314 313 311 310 317 317 315 317 311 312 313 314 311 309 307 311 312 309 308 307 304 305 305 306 308 308 306 308 309 302 303 303 302 301 300 299 300 299 300 297
315 315 315 315 315 315 314 314 313 311 309 319 311 311 318 312 315 312 306 310 308 309 309 307 307 308 308 306 307 304 306 308 306 310 308 310 300 302 299 302 301 299 300 301 301 301 301
313 314 314 315 315 314 314 314 314 312 311 317 318 318 314 307 311 309 310 311 310 311 311 311 310 308 307 308 309 310 311 312 310 306 307 306 303 300 297 301 301 297 302 301 301 302 301
311 312 314 314 315 314 314 314 314 314 311 318 317 314 310 305 308 307 308 309 309 309 309 310 311 310 312 313 312 311 310 309 308 307 309 306 304 302 297 300 291 302 306 303 301 302 303
309 310 311 313 314 314 315 315 314 314 313 318 319 315 311 305 307 307 308 308 310 310 309 309 311 315 314 310 307 305 305 306 306 307 307 308 305 300 297 296 299 300 304 301 297 298 304
306 309 310 311 312 314 314 315 314 314 314 318 320 319 314 308 307 309 309 309 308 309 309 310 314 317 314 309 306 300 298 301 301 303 308 309 307 302 299 293 290 301 305 305 303 295 305
304 305 308 309 311 312 314 315 316 315 315 316 320 324 314 308 311 311 308 309 313 311 309 311 311 310 315 306 302 301 300 305 298 299 301 302 303 298 297 295 298 305 307 306 292 297 306
303 303 305 308 309 310 312 313 315 315 316 315 319 324 314 310 312 313 312 311 312 311 308 314 309 311 309 304 303 303 302 304 302 304 302 301 300 298 299 295 292 308 305 296 305 309 309
302 303 303 306 307 309 310 312 314 315 315 312 314 322 320 311 312 318 317 317 315 315 313 316 312 311 311 307 307 307 303 304 303 297 307 298 303 301 302 301 310 310 308 310 311 309 309
Wind_Speed
18 18 18 17 14 12 11 9 7 6 5 5 5 6 6 8 9 9 10 11 11 12 13 14 14 12 10 8 11 9 6 7 11 11 8 6 8 4 6 1 4 4 6 1 3 3 2
19 18 19 18 16 14 12 11 9 7 6 5 5 6 7 8 9 10 11 11 12 12 13 13 14 15 13 4 3 1 2 7 5 9 4 8 3 10 1 2 6 5 2 5 4 10 3
20 19 18 18 17 16 14 13 11 9 7 5 5 5 7 8 9 10 11 11 11 12 13 13 11 8 14 9 1 3 5 3 2 5 5 3 7 8 1 2 2 2 10 7 5 6 5
19 19 19 18 18 18 16 15 13 11 8 7 6 6 7 8 9 10 11 12 12 14 13 13 9 11 3 2 3 2 3 5 0 2 3 2 7 11 8 5 6 9 8 12 13 7 5
19 19 19 19 18 18 17 16 14 12 10 8 7 7 7 8 9 10 12 12 15 12 10 12 10 13 9 6 6 2 4 4 2 4 2 2 10 5 7 11 12 10 14 7 11 3 2
19 20 20 20 19 19 18 17 15 13 12 10 8 8 8 9 10 11 12 9 5 9 9 10 9 10 7 5 3 2 2 5 4 8 10 11 10 11 13 14 8 6 10 4 7 10 7
19 20 20 21 20 19 19 18 17 15 13 12 10 9 9 9 11 11 11 6 8 8 12 8 6 4 8 6 6 3 1 4 7 9 13 6 13 3 14 12 13 13 7 10 2 7 10
18 19 20 20 21 20 19 18 17 16 15 13 12 10 10 10 12 8 8 5 8 8 4 4 1 1 1 1 5 5 8 6 9 14 3 10 1 9 6 8 10 11 12 12 1 4 7
18 19 20 20 21 21 21 20 19 18 16 14 12 11 11 11 12 5 5 6 7 4 8 8 4 7 10 11 2 6 3 5 3 4 7 13 11 1 5 2 9 10 10 12 9 8 10
17 19 20 20 21 21 21 21 21 20 18 16 13 12 11 11 3 3 4 5 4 4 7 12 11 5 7 5 5 4 4 6 1 5 4 6 4 2 5 1 10 14 10 8 12 12 13
16 18 19 20 21 22 22 22 22 21 19 17 14 11 11 4 10 5 6 7 6 4 7 16 12 6 7 7 13 6 0 6 5 6 6 8 2 4 5 8 10 13 11 11 11 12 14
15 17 18 20 21 22 23 23 23 23 21 18 14 11 8 6 8 4 6 3 6 9 3 9 8 11 13 8 6 6 5 1 5 5 6 8 4 3 8 6 4 9 12 14 13 11 12
14 16 17 19 20 22 22 23 24 25 24 21 15 10 5 8 5 7 5 7 8 12 6 9 12 10 14 8 7 5 6 9 6 6 10 10 10 7 4 13 9 7 9 8 7 9 7
13 15 17 18 20 21 23 24 25 25 25 22 16 10 6 5 6 6 6 9 9 4 5 4 2 9 8 4 7 5 7 9 7 9 11 11 8 4 2 5 9 8 8 6 7 8 13
13 14 16 18 19 21 23 24 26 27 26 23 14 6 7 2 5 6 9 10 4 0 5 6 9 10 9 6 7 5 7 9 8 5 8 8 3 7 4 3 5 5 4 8 8 13 11
12 14 15 17 18 20 22 24 26 28 29 21 7 6 5 1 3 7 8 10 2 3 3 6 10 3 8 10 5 7 6 6 2 4 4 3 11 5 8 5 4 7 6 6 5 5 10
11 13 14 15 17 19 21 23 25 29 33 18 7 6 7 1 5 8 9 2 3 4 2 5 3 2 6 5 4 10 2 7 2 2 3 4 3 4 3 11 4 8 10 6 3 7 7
10 11 13 15 16 18 20 22 23 25 33 9 5 7 5 3 8 3 6 3 4 6 4 1 3 5 4 2 7 6 5 4 1 3 4 6 6 10 5 8 5 7 9 4 3 7 8
9 10 11 13 15 17 18 21 22 21 17 9 6 7 6 4 7 6 5 3 3 4 2 2 2 3 0 4 4 4 2 7 2 4 4 3 4 5 8 9 6 7 8 7 7 6 10
9 10 10 10 13 15 17 19 22 22 15 6 6 4 5 6 4 9 3 7 8 1 2 2 1 3 4 5 5 3 5 5 3 2 3 2 8 10 10 14 7 7 9 10 10 7 12
8 9 10 10 10 13 15 19 21 24 23 6 3 3 5 4 4 5 4 4 9 7 8 6 5 8 5 4 6 7 5 9 7 6 5 5 11 12 12 12 12 13 13 13 14 14 14
8 9 10 10 10 11 13 16 19 24 30 5 6 5 1 8 6 8 5 8 10 6 3 8 8 5 5 6 5 7 3 7 7 11 8 6 8 8 13 14 13 15 15 14 14 14 15
10 9 9 10 10 10 10 13 16 20 21 5 4 3 6 1 7 9 9 9 6 8 6 9 5 5 7 3 2 5 6 6 5 6 7 8 7 8 12 6 8 13 10 9 10 7 10
10 10 10 9 10 10 10 9 12 14 14 8 5 6 7 10 5 9 1 4 8 7 10 6 8 8 6 4 1 4 5 6 8 9 8 8 9 10 11 12 13 4 4 4 7 10 10
12 11 12 10 9 9 10 10 9 12 13 9 4 5 5 8 9 6 8 9 6 4 8 6 5 7 5 3 7 7 8 8 10 10 10 9 9 9 8 10 13 13 6 1 4 11 14
11 12 11 11 10 9 9 10 9 10 11 9 4 5 6 7 5 6 5 7 9 8 8 6 7 4 4 7 9 8 8 6 7 7 6 9 10 10 10 10 8 5 7 4 3 8 5
12 12 12 11 11 10 10 10 10 8 8 8 4 1 6 8 9 3 5 8 8 8 7 10 10 7 7 8 9 10 11 9 9 9 8 9 9 13 11 11 10 6 10 4 4 4 9
11 12 12 12 12 12 11 10 9 9 6 7 3 1 6 8 9 3 7 9 6 6 9 8 7 8 8 9 10 9 6 8 7 10 6 9 6 6 7 12 13 11 10 4 4 10 12
11 11 12 13 12 12 12 11 10 9 7 5 8 4 3 7 10 6 9 11 12 10 9 5 4 3 5 5 6 5 5 5 7 10 8 7 10 5 5 2 4 5 5 3 8 12 13
Wind_Direction
20 21 24 23 21 22 21 17 10 359 340 329 324 319 316 313 310 309 309 311 309 305 303 303 302 305 295 219 83 120 250 224 256 265 291 257 251 218 236 130 221 139 141 84 160 119 48
19 16 19 18 17 19 21 21 15 7 355 340 325 315 309 304 303 305 306 305 301 298 300 300 300 309 244 164 85 161 291 234 286 278 289 284 294 329 67 236 279 84 265 173 204 126 191
17 15 13 13 14 17 20 22 18 9 359 344 328 312 301 298 299 299 299 300 297 297 298 294 297 293 263 81 287 229 235 354 309 301 259 281 314 247 198 158 275 189 215 177 193 175 176
14 13 11 11 11 12 16 20 18 11 1 348 334 317 307 302 297 297 299 298 293 292 291 283 297 278 65 145 299 246 273 128 15 206 338 277 243 273 281 56 239 237 270 201 133 180 121
11 10 10 11 9 9 11 13 13 10 5 354 339 324 312 300 298 298 296 292 283 278 263 277 263 228 124 160 215 96 344 341 100 158 96 232 241 238 202 224 205 200 254 197 143 237 158
9 7 8 9 9 7 7 8 9 7 5 356 340 325 311 304 299 294 288 270 301 283 227 246 265 259 176 122 99 291 82 280 224 167 189 222 216 213 211 218 268 233 218 188 289 142 231
8 6 6 6 6 6 5 4 3 2 359 355 342 324 312 304 295 295 302 199 201 192 215 325 111 30 112 125 203 174 280 218 223 239 249 233 261 303 17 350 334 326 313 293 262 83 290
7 3 3 3 3 3 3 2 0 357 354 349 341 327 315 307 294 303 269 290 33 348 217 198 162 11 114 260 168 121 222 238 214 234 252 233 357 33 327 308 296 294 282 272 317 184 286
3 1 1 0 360 360 1 359 358 355 352 346 336 325 317 311 313 261 68 28 322 306 253 169 184 184 176 219 124 91 292 328 347 207 236 5 81 143 279 254 316 262 294 323 313 313 230
2 360 359 358 358 357 358 357 356 355 350 344 334 323 315 320 285 123 99 347 325 339 252 145 189 157 176 188 133 344 343 317 266 52 47 52 52 300 257 141 339 303 14 307 290 280 277
2 359 357 356 356 355 355 354 352 352 348 343 332 319 307 284 319 240 18 330 347 244 251 147 143 99 173 211 121 144 268 276 12 103 257 99 158 308 276 19 333 319 334 304 297 281 280
3 359 357 355 354 355 352 352 351 350 348 345 335 315 319 211 243 39 302 324 248 233 217 143 151 192 185 186 151 129 200 267 354 282 307 92 48 332 10 300 298 302 275 260 248 247 249
1 359 356 354 353 353 353 350 350 348 347 346 339 321 271 306 351 349 307 225 221 260 116 140 185 181 198 171 149 231 201 208 267 257 198 183 182 127 312 308 175 285 317 295 231 203 254
359 358 356 354 353 352 352 351 350 347 346 342 333 318 201 289 309 319 246 226 258 12 174 74 224 197 210 169 209 203 247 251 174 281 282 287 179 181 71 355 326 303 319 292 307 325 320
357 357 356 355 352 351 352 351 349 347 344 339 318 204 217 131 316 288 256 230 293 20 61 201 193 214 188 183 276 205 226 325 26 352 299 327 105 117 59 354 307 22 271 15 300 278 260
355 354 354 354 352 350 351 351 349 347 341 341 279 230 144 308 308 261 246 267 3 38 288 259 224 236 265 168 225 200 280 89 124 304 306 15 287 140 97 249 165 301 16 239 198 287 312
353 353 352 351 351 350 349 352 350 348 339 339 255 237 99 223 243 241 244 100 137 117 276 295 295 270 282 319 279 298 319 104 275 151 302 334 244 157 225 207 320 179 203 222 320 301 307
349 351 352 350 349 349 349 348 352 352 341 326 289 252 93 194 252 242 281 125 1 155 188 178 306 317 292 27 280 277 283 83 32 295 266 65 304 275 248 58 293 287 304 302 278 278 285
341 345 349 350 347 347 347 345 349 353 10 314 295 301 132 242 263 214 98 154 248 192 211 229 164 310 349 271 277 259 230 87 193 260 359 147 238 284 243 181 204 251 242 223 259 278 273
330 334 340 348 347 346 346 344 344 343 353 295 280 262 163 215 281 298 173 209 179 209 151 258 78 243 228 234 212 271 217 145 150 53 10 338 268 260 270 335 337 260 234 243 254 265 271
324 325 329 336 346 345 348 344 344 339 337 288 249 56 4 298 160 278 296 318 227 176 233 222 214 237 237 255 237 229 237 136 189 143 215 259 264 267 263 284 286 278 275 279 275 275 277
321 321 323 327 334 343 349 346 346 342 333 256 315 334 191 282 288 263 169 234 253 215 212 217 250 220 237 253 284 326 288 238 252 153 242 206 269 273 281 266 261 278 278 276 271 273 275
341 324 317 322 325 331 345 349 351 351 337 326 21 199 275 226 222 254 252 224 239 268 169 278 256 224 224 262 354 348 330 324 310 266 211 233 271 264 283 273 282 278 292 249 292 289 293
346 338 325 316 316 323 327 343 352 351 358 313 25 291 270 264 226 265 282 284 262 240 247 196 238 223 81 87 191 232 250 252 240 237 256 240 248 273 271 290 276 70 88 348 294 289 298
342 345 336 322 315 316 318 319 342 338 345 311 321 305 299 275 274 271 231 252 240 219 236 202 164 41 131 198 252 224 206 220 219 231 212 238 255 268 264 281 305 258 162 67 87 297 300
334 340 336 331 323 314 309 308 312 325 338 299 341 309 275 295 288 359 290 242 249 206 178 195 89 168 187 265 231 252 269 291 165 173 232 227 233 266 269 273 276 33 112 83 317 281 56
336 331 334 336 331 323 312 304 302 301 319 308 310 13 273 272 278 321 268 291 225 285 234 163 156 192 222 247 252 259 265 256 266 248 172 209 225 233 242 251 257 102 130 137 255 303 343
325 330 327 329 331 329 315 302 294 281 292 297 333 106 294 286 282 274 271 278 246 247 253 118 175 203 202 241 261 260 247 264 238 267 275 218 214 253 248 264 273 115 134 201 283 319 302
305 321 323 325 325 326 325 309 285 273 262 271 272 147 269 261 300 329 285 293 288 314 310 163 296 318 238 236 227 289 261 250 266 270 161 254 244 278 189 266 113 194 248 282 282 303 309